This is the latest recevied weather packets stored in our database for station/object N0QV. If no packets are shown the sender has not sent any weather packets the latest 10 day(s).
| Time | Temp. | Humidity | Pressure | Rain* | Wind** | Luminosity | Snow |
|---|---|---|---|---|---|---|---|
| 1777753010 | 20° C | 29% | 1015 hPa | 0 mm | - | 567 W/m² | - |
| 1777752706 | 19.44° C | 29% | 1015 hPa | 0 mm | - | 540 W/m² | - |
| 1777752402 | 19.44° C | 26% | 1014.9 hPa | 0 mm | - | 606 W/m² | - |
| 1777752099 | 19.44° C | 30% | 1015.2 hPa | 0 mm | - | 587 W/m² | - |
| 1777751797 | 20° C | 31% | 1015.1 hPa | 0 mm | - | 637 W/m² | - |
| 1777751493 | 19.44° C | 29% | 1015.1 hPa | 0 mm | - | 543 W/m² | - |
| 1777751190 | 19.44° C | 28% | 1015.3 hPa | 0 mm | - | 558 W/m² | - |
| 1777750887 | 19.44° C | 31% | 1015.6 hPa | 0 mm | - | 645 W/m² | - |
| 1777750583 | 18.89° C | 30% | 1015.6 hPa | 0 mm | - | 626 W/m² | - |
| 1777750280 | 18.89° C | 27% | 1015.8 hPa | 0 mm | - | 639 W/m² | - |
| 1777749975 | 18.89° C | 29% | 1015.7 hPa | 0 mm | - | 707 W/m² | - |
| 1777749673 | 18.89° C | 28% | 1015.9 hPa | 0 mm | - | 684 W/m² | - |
| 1777749370 | 18.89° C | 28% | 1015.9 hPa | 0 mm | - | 619 W/m² | - |
| 1777749068 | 18.89° C | 30% | 1016.1 hPa | 0 mm | - | 663 W/m² | - |
| 1777748765 | 18.89° C | 27% | 1016.4 hPa | 0 mm | - | 647 W/m² | - |
| 1777748462 | 18.89° C | 28% | 1016.1 hPa | 0 mm | - | 668 W/m² | - |
| 1777748156 | 18.33° C | 30% | 1016.3 hPa | 0 mm | - | 647 W/m² | - |
| 1777747854 | 18.33° C | 29% | 1016.2 hPa | 0 mm | - | 576 W/m² | - |
| 1777747549 | 17.78° C | 29% | 1016.4 hPa | 0 mm | - | 575 W/m² | - |
| 1777747245 | 17.78° C | 31% | 1016.6 hPa | 0 mm | - | 558 W/m² | - |
| 1777746942 | 17.78° C | 32% | 1016.5 hPa | 0 mm | - | 607 W/m² | - |
| 1777746638 | 17.78° C | 29% | 1016.6 hPa | 0 mm | - | 670 W/m² | - |
| 1777746333 | 17.78° C | 30% | 1016.9 hPa | 0 mm | - | 675 W/m² | - |
| 1777746030 | 17.78° C | 32% | 1017.1 hPa | 0 mm | - | 711 W/m² | - |
| 1777745728 | 17.22° C | 31% | 1017.1 hPa | 0 mm | - | 706 W/m² | - |
* Rain latest hour (hover to see other rain measurements)
** Current wind speed in m/s (hover to see current wind gust speed)